Location: Ailingen
(47.6833°N, 9.5000°E)
Time: 05:08:05
(UTC+00:00)

Timation 2 Rocket - Pass Details

Date: 18 November 2025
Orbit: 904 x 1075 km, 70.0° (Epoch: 04 December)

Event Time Altitude Azimuth Distance (km) Brightness Sun altitude
Rises 17:21:53 0° 216° (SW) 3,845 7.9 -16.6°
Reaches altitude 10° 17:24:31 10° 219° (SW) 2,901 7.2 -17.1°
Maximum altitude 17:31:21 69° 302° (WNW) 1,144 4.5 -18.2°
Drops below altitude 10° 17:38:11 10° 26° (NNE) 2,893 6.1 -19.3°
Enters shadow 17:38:22 - 26° (NNE) 2,957 6.2 -19.4°
